#timestamp,LO_Frequency,Hit,StdDev 
1709712015.9,286047001.7,N
1709712035.7,286047002.8,N
1709712055.6,286047001.8,N
1709712075.4,286047001.7,N
1709712095.2,286047001.6,N
1709712115.1,286047003.7,Y
1709712116.0,286047003.7,P
1709712135.8,286046999.7,N
1709712155.7,286046999.8,N
1709712175.5,286047002.5,N
1709712195.3,286046999.9,N
1709712215.2,286047000.5,N
1709712235.0,286046998.8,N
1709712235.9,286046998.8,N
1709712255.8,286046999.4,N
1709712275.6,286046999.0,N
1709712295.4,286046996.5,N
1709712315.3,286046997.1,N
1709712335.1,286046996.8,N
1709712355.9,286046997.7,N
1709712375.7,286046996.6,N
1709712395.5,286046996.6,N
1709712415.4,286046996.9,N
1709712435.2,286046996.8,N
1709712455.0,286046996.5,N
1709712455.9,286046996.5,N
1709712475.8,286046996.6,N
1709712495.6,286046998.4,N
1709712515.5,286046998.6,N
1709712535.3,286046998.5,N
1709712555.1,286046999.0,N
1709712575.9,286046998.1,N
1709712595.7,286047000.3,N
1709712615.6,286047002.8,N
1709712635.4,286046999.8,N
1709712655.2,286047000.6,N
1709712675.1,286047000.9,N
1709712676.0,286047000.9,N
1709712695.8,286047000.6,N
1709712715.7,286047000.7,N
1709712735.5,286047000.3,N
1709712755.3,286046999.9,N
1709712775.2,286047002.5,N
1709712795.9,286047001.5,N
1709712815.7,286047004.4,N
1709712835.6,286047001.6,N
1709712855.4,286047002.0,N
1709712875.3,286047004.4,N
1709712895.1,286047001.5,N
1709712896.0,286047001.5,N
1709712915.8,286047002.7,N
1709712935.7,286047002.7,N
1709712955.5,286047000.1,N
1709712975.4,286047000.1,N
1709712995.2,286047000.6,N
1709713015.0,286047000.7,N
1709713015.9,286047000.7,N
1709713035.8,286047000.8,N
1709713055.6,286047002.3,N
1709713075.4,286047000.1,N
1709713095.3,286047002.4,N
1709713115.1,286046999.9,N
1709713135.9,286047002.0,N
1709713155.7,286047002.1,N
1709713175.5,286047002.4,N
1709713195.4,286047002.6,N
1709713215.2,286046999.8,N
1709713235.0,286047001.9,N
1709713236.0,286047001.9,N
1709713255.8,286047002.2,N
1709713275.6,286047001.8,N
1709713295.5,286047002.5,N
1709713315.3,286047002.1,N
1709713335.1,286047002.3,N
1709713355.9,286047001.6,N
1709713375.7,286047002.3,N
1709713395.6,286047000.0,N
1709713415.4,286047000.9,N
1709713435.2,286046999.9,N
1709713455.1,286047000.3,N
1709713456.0,286047000.3,N
1709713475.8,286047000.8,N
1709713495.6,286047001.0,N
1709713515.5,286047000.3,N
1709713535.3,286046999.7,N
1709713555.2,286047000.6,N
1709713575.9,286047002.4,N
1709713595.7,286047000.3,N
1709713615.6,286047000.6,N
1709713635.4,286047000.3,N
1709713655.3,286047000.1,N
1709713675.1,286047000.4,N
1709713676.0,286047000.4,N
1709713695.8,286047000.7,N
1709713715.7,286047000.5,N
1709713735.5,286047000.4,N
1709713755.4,286047002.8,Y
1709713775.2,286047000.5,P
1709713795.0,286047000.6,N
1709713795.9,286047000.6,P
1709713815.8,286047000.3,N
1709713835.6,286046999.9,N
1709713855.4,286046999.7,N
1709713875.3,286047000.9,N
1709713895.1,286047000.3,N
1709713915.9,286047002.6,Y
1709713935.7,286047002.7,P
1709713955.5,286047002.7,N
1709713975.4,286047000.1,N
1709713995.2,286047000.0,N
1709714015.0,286047000.1,N
1709714016.0,286047000.1,N
1709714035.8,286047001.0,N
1709714055.6,286046998.6,N
1709714075.5,286046999.2,N
1709714095.3,286046998.9,N
1709714115.1,286047000.7,N
1709714135.9,286047000.8,N
1709714155.7,286047000.1,N
1709714175.6,286047000.4,N
1709714195.4,286047001.0,N
1709714215.2,286047000.3,N
1709714235.1,286047000.5,N
1709714236.0,286047000.5,N
1709714255.8,286047000.6,N
1709714275.6,286046998.2,N
1709714295.5,286046998.6,N
1709714315.3,286047000.7,N
1709714335.2,286047001.1,N
1709714355.9,286047000.8,N
1709714375.7,286047000.9,N
1709714395.6,286047000.7,N
1709714415.4,286046999.7,N
1709714435.2,286047002.1,N
1709714455.1,286047002.1,N
1709714456.0,286047002.1,N
1709714475.8,286046998.2,N
1709714495.7,286046998.3,N
1709714515.5,286046999.4,N
1709714535.3,286046998.4,N
1709714555.2,286046998.6,N
1709714575.0,286047000.7,N
1709714575.9,286047000.7,N
1709714595.8,286046998.2,N
1709714615.6,286047000.0,N
1709714635.4,286047002.5,N
1709714655.3,286047002.2,N
1709714675.1,286047001.8,N
1709714695.9,286047004.3,Y
1709714715.7,286047002.5,P
1709714735.5,286047000.0,N
1709714755.4,286047000.5,N
1709714775.2,286046998.5,N
1709714795.0,286046998.5,N
1709714795.9,286046998.5,N
1709714815.8,286046998.4,N
1709714835.6,286047001.0,N
1709714855.5,286046998.6,N
1709714875.3,286046998.2,N
1709714895.1,286046998.9,N
1709714915.9,286046998.3,N
1709714935.7,286047000.8,N
1709714955.5,286047000.9,N
1709714975.4,286046999.9,N
1709714995.2,286047002.3,N
1709715015.1,286047002.8,N
1709715016.0,286047002.8,N
1709715035.8,286047002.4,N
1709715055.6,286047002.1,N
1709715075.5,286047000.2,N
1709715095.3,286046999.7,N
1709715115.1,286047000.5,N
1709715135.9,286046999.9,N
1709715155.7,286046998.2,N
1709715175.6,286047000.7,N
1709715195.4,286047001.0,N
1709715215.2,286047001.2,N
1709715235.1,286046998.5,N
1709715236.0,286046998.5,N
1709715255.8,286047000.7,N
1709715275.7,286046999.3,N
1709715295.5,286047000.7,N
1709715315.3,286047002.8,N
1709715335.2,286047002.4,N
1709715355.0,286047002.1,N
1709715355.9,286047002.1,N
1709715375.7,286047003.8,N
1709715395.6,286047001.8,N
1709715415.4,286047002.0,N
1709715435.3,286047001.8,N
1709715455.1,286047001.7,N
1709715456.0,286047001.7,N
1709715475.8,286047001.3,N
1709715495.7,286047003.9,N
1709715515.5,286047001.3,N
1709715535.4,286047002.2,N
1709715555.2,286047002.4,N
1709715575.0,286047000.3,N
1709715575.9,286047000.3,N
1709715595.8,286047000.9,N
